Volver al catálogo

STARLINK-37176

ActivoComunicacionesSSO
NORAD 68615·PAYLOAD·🇺🇸 United States

Lanzado Apr 5, 2026 desde Vandenberg Space Force Base

Loading…

Próximos Pases (próximas 24 horas)

TLE

ActualizadoSource: CelesTrak SupGP

Época: Sep 14, 2026, 16:10 UTC

1 68615C 26073P   26257.67409722 -.00073384  00000+0 -22791-2 0  2579
2 68615  97.2850  95.8256 0001617  88.3331 184.8582 15.33461395    12

Sigue STARLINK-37176 en tiempo real con AllMySat

Download on the App Store